TimeMDT,TemperatureF,Dew PointF,Humidity,Sea Level PressureIn,VisibilityMPH,Wind Direction,Wind SpeedMPH,Gust SpeedMPH,PrecipitationIn,Events,Conditions,WindDirDegrees,DateUTC
12:54 AM,48.0,32.0,54,29.87,10.0,SSW,12.7,-,N/A,,Clear,200,2012-10-13 06:54:00
1:54 AM,43.0,32.0,65,29.84,10.0,SSW,11.5,-,N/A,,Clear,200,2012-10-13 07:54:00
2:54 AM,46.0,28.0,50,29.84,10.0,NNW,5.8,-,N/A,,Clear,330,2012-10-13 08:54:00
3:54 AM,48.0,24.1,39,29.82,10.0,WNW,11.5,17.3,N/A,,Clear,300,2012-10-13 09:54:00
4:54 AM,45.0,21.0,39,29.82,10.0,SW,8.1,-,N/A,,Clear,230,2012-10-13 10:54:00
5:54 AM,39.9,21.9,49,29.86,10.0,NNE,4.6,-,N/A,,Clear,30,2012-10-13 11:54:00
6:54 AM,39.0,21.0,49,29.87,10.0,North,13.8,-,N/A,,Clear,360,2012-10-13 12:54:00
7:54 AM,45.0,23.0,42,29.86,10.0,NNW,8.1,-,N/A,,Partly Cloudy,340,2012-10-13 13:54:00
8:54 AM,52.0,23.0,32,29.85,10.0,North,4.6,29.9,N/A,,Scattered Clouds,350,2012-10-13 14:54:00
9:54 AM,54.0,23.0,30,29.85,10.0,NNW,9.2,-,N/A,,Mostly Cloudy,340,2012-10-13 15:54:00
10:54 AM,54.0,26.1,34,29.87,10.0,North,12.7,-,N/A,,Overcast,10,2012-10-13 16:54:00
11:54 AM,57.0,24.1,28,29.82,10.0,NNW,10.4,17.3,N/A,,Mostly Cloudy,330,2012-10-13 17:54:00
12:54 PM,57.0,28.9,34,29.81,10.0,North,19.6,31.1,N/A,,Overcast,350,2012-10-13 18:54:00
1:54 PM,55.9,30.9,39,29.83,10.0,North,16.1,21.9,N/A,,Mostly Cloudy,350,2012-10-13 19:54:00
2:54 PM,53.1,34.0,48,29.86,10.0,North,29.9,36.8,N/A,,Mostly Cloudy,350,2012-10-13 20:54:00
3:54 PM,53.1,37.0,55,29.89,10.0,NNW,26.5,33.4,0.00,Rain,Light Rain,330,2012-10-13 21:54:00
4:54 PM,55.0,35.1,47,29.89,10.0,NNW,24.2,34.5,0.00,,Scattered Clouds,330,2012-10-13 22:54:00
5:54 PM,53.6,35.6,51,30.04,10.0,NNW,19.6,32.2,N/A,,Scattered Clouds,330,2012-10-13 23:54:00
6:54 PM,52.0,37.0,57,30.03,10.0,NNW,17.3,26.5,N/A,,Scattered Clouds,340,2012-10-14 00:54:00
7:54 PM,50.0,37.0,61,30.04,10.0,WNW,8.1,-,N/A,,Clear,300,2012-10-14 01:54:00
8:54 PM,48.9,37.0,64,30.03,10.0,WNW,5.8,-,N/A,,Partly Cloudy,300,2012-10-14 02:54:00
11:54 PM,51.1,33.1,50,30.07,10.0,WNW,6.9,-,N/A,,Overcast,300,2012-10-14 05:54:00